Location: Iesi
(43.5167°N, 13.2333°E)
Time: 18:34:39
(UTC+00:00)

Cosmos 2034 Rocket - Pass Details

Date: 08 August 2020
Orbit: 958 x 1000 km, 82.9° (Epoch: 23 September)

Event Time Altitude Azimuth Distance (km) Brightness Sun altitude
Exits shadow 23:44:01 81° 69° (ENE) 996 3.9 -30.3°
Drops below altitude 10° 23:50:12 10° 10° (N) 2,757 7.3 -30.1°
Sets 23:52:44 0° 9° (N) 3,715 8.2 -30.0°
